METEOR 2-8 DEB

Satellite information

Favourite Embed

Satellite Type and Status

DEBRISIN ORBIT

Key statistics

Satellite METEOR 2-8 DEB at a glance.

Uptime

15865

Days in orbit

Revolutions

≈ 14.4

Per day

Orbit

LEO

Low Earth Orbit

Inclination

82.5

Latest

Satellite identification and parameters

Extended collection of information and parameters for METEOR 2-8 DEB.

Object identification

Identified? True

Debris? True

Object name: METEOR 2-8 DEB

International designator: 1982-025E

Object number (NORAD): 36320

Object ID (CCSDS): 36320

Country: COMMONWEALTH OF INDEPENDENT STATES (CIS)

Current information (Y/N): Y

RCS size: SMALL

Orbital parameters

Period: 100.048 minutes

Inclination: 82.4782 deg

SMA: 7138.93 km

Apoapsis: 764.93 km

Periapsis: 756.661 km

RAAN: 29.1242 deg

Eccentricy: 0.00057911

Argument of periapsis: 38.9011 deg

Mean anomaly: 321.2596 deg

Mean motion: 14.39305705 rev/day

Mean motion (dot): 0.00013019 rev/day2

B* drag term: 0.0041826262 1/REarth

Two-line elements (TLE)

Creation date: Aug. 30, 2025, 3:38 a.m.

Reference frame: TEME

Reference center: EARTH

Epoch: Aug. 29, 2025, 9:25 a.m. UTC

TLE line 0: 0 METEOR 2-8 DEB

TLE line 1: 1 36320U 82025E 25241.39289126 .00013019 00000-0 41826-2 0 9992

TLE line 2: 2 36320 82.4782 29.1242 0005791 38.9011 321.2596 14.39305705626156

Live tracking on map

Real-time ground track for satellite METEOR 2-8 DEB.

In-orbit conjunctions

A list of the most updated potential collisions computed for object METEOR 2-8 DEB.

Target Orbit TCA Probability of collision Miss distance Type
CZ-2D DEB SSO 2025-06-26 23:43:00 0.0001328463 335.0 (m) DEBRIS
IRIDIUM 38 LEO 2025-05-15 19:54:11 0.000123892 930.0 (m) PAYLOAD
CZ-6A DEB LEO 2025-01-18 06:43:50 0.00123105 25.0 (m) DEBRIS
CZ-6A DEB SSO 2025-01-16 19:29:49 0.0001307063 154.0 (m) DEBRIS
FENGYUN 1C DEB SSO 2024-09-26 10:34:28 0.000264342 693.0 (m) DEBRIS

Associated space launch

Second generation soviet meteorological satellite

METEOR 2-8 DEB was lifted into orbit during the mission ‘Tsiklon-3 | Meteor-2 8’, on board a Tsiklon-3 space rocket.

The launch took place on March 25, 1982, 9:50 a.m. from 32/1.

For more information about the launch, click the button.

Launch to space Tsiklon-3 | Meteor-2 8
Tsiklon-3 | Meteor-2 8

Agency: N/A

Status: Launch Successful

Launch date: March 25, 1982, 9:50 a.m. UTC

Rocket: Tsiklon-3

Launch pad: 32/1

Location: Plesetsk Cosmodrome, Russian Federation

...

Latest news about this satellite

There are no fresh news available about this satellite. Check back as we update our databases every day.


Newsletter sign-up

Weekly statistics, charts and insights to help you stay on top of the space industry.